| time (UTC) | temp F | wind direction | speed MPH | gust MPH | rain 1hr in | rain 24hr in | rain mn in | humidity % | barometer mb |
| 20260502202537 | 52 | 0.0 | 2.0 | 0.01 | 0.08 | 0.08 | 79 | 926.3 | |
| 20260502201538 | 54 | 270 | 2.0 | 5.0 | 0.00 | 0.07 | 0.07 | 71 | 926.2 |
| 20260502200517 | 57 | 68 | 1.0 | 5.0 | 0.00 | 0.07 | 0.07 | 61 | 926.2 |
| 20260502195517 | 58 | 180 | 2.0 | 6.0 | 0.00 | 0.07 | 0.07 | 59 | 925.9 |
| 20260502194517 | 60 | 158 | 2.0 | 6.0 | 0.00 | 0.07 | 0.07 | 57 | 925.8 |
| 20260502193517 | 59 | 203 | 2.0 | 7.0 | 0.00 | 0.07 | 0.07 | 57 | 926.0 |
| 20260502192517 | 57 | 158 | 1.0 | 4.0 | 0.00 | 0.07 | 0.07 | 58 | 926.2 |
| 20260502191517 | 56 | 0.0 | 1.0 | 0.00 | 0.07 | 0.07 | 58 | 926.4 | |
| 20260502190517 | 56 | 270 | 2.0 | 8.0 | 0.00 | 0.07 | 0.07 | 58 | 926.4 |
| 20260502185517 | 56 | 248 | 2.0 | 5.0 | 0.00 | 0.07 | 0.07 | 61 | 926.5 |
| 20260502184517 | 57 | 248 | 2.0 | 6.0 | 0.00 | 0.07 | 0.07 | 60 | 926.6 |
| 20260502183517 | 56 | 180 | 2.0 | 6.0 | 0.00 | 0.07 | 0.07 | 65 | 926.8 |
| 20260502182517 | 56 | 270 | 1.0 | 3.0 | 0.00 | 0.07 | 0.07 | 60 | 926.6 |
| 20260502181558 | 56 | 158 | 1.0 | 4.0 | 0.00 | 0.07 | 0.07 | 59 | 926.6 |
| 20260502180516 | 56 | 180 | 2.0 | 7.0 | 0.00 | 0.07 | 0.07 | 60 | 926.8 |
| 20260502163516 | 54 | 270 | 2.0 | 7.0 | 0.01 | 0.07 | 0.07 | 61 | 927.3 |
| 20260502162517 | 54 | 158 | 1.0 | 5.0 | 0.01 | 0.07 | 0.07 | 61 | 927.3 |
| 20260502161516 | 55 | 270 | 4.0 | 15.0 | 0.01 | 0.07 | 0.07 | 61 | 927.5 |
| 20260502160518 | 54 | 248 | 2.0 | 5.0 | 0.01 | 0.07 | 0.07 | 64 | 927.4 |
| 20260502151516 | 54 | 0.0 | 2.0 | 0.00 | 0.06 | 0.06 | 81 | 928.0 | |
| 20260502150516 | 52 | 0.0 | 1.0 | 0.00 | 0.06 | 0.06 | 82 | 927.6 | |
| 20260502130516 | 48 | 0.0 | 0.0 | 0.06 | 0.06 | 0.06 | 90 | 928.0 | |
| 20260502123516 | 49 | 0.0 | 0.0 | 0.01 | 0.01 | 0.01 | 84 | 928.8 | |
| 20260502122516 | 49 | 0.0 | 0.0 | 0.00 | 0.00 | 0.00 | 81 | 928.8 | |
| 20260502121517 | 49 | 0.0 | 3.0 | 0.00 | 0.00 | 0.00 | 81 | 928.8 | |
| 20260502120516 | 49 | 0.0 | 1.0 | 0.00 | 0.00 | 0.00 | 81 | 928.7 | |
| 20260502115516 | 49 | 0.0 | 0.0 | 0.00 | 0.00 | 0.00 | 81 | 928.5 | |
| 20260502114518 | 49 | 0.0 | 1.0 | 0.00 | 0.00 | 0.00 | 81 | 928.1 | |
| 20260502113516 | 49 | 0.0 | 0.0 | 0.00 | 0.00 | 0.00 | 81 | 928.0 | |
| 20260502112516 | 48 | 0.0 | 0.0 | 0.00 | 0.00 | 0.00 | 82 | 927.7 | |
| 20260502111516 | 48 | 0.0 | 0.0 | 0.00 | 0.00 | 0.00 | 82 | 927.8 | |
| 20260502110516 | 48 | 0.0 | 2.0 | 0.00 | 0.00 | 0.00 | 81 | 928.2 | |
| 20260502105516 | 48 | 0.0 | 0.0 | 0.00 | 0.00 | 0.00 | 81 | 928.1 | |
| 20260502104516 | 48 | 0.0 | 0.0 | 0.00 | 0.00 | 0.00 | 81 | 927.9 | |
| 20260502103516 | 48 | 0.0 | 0.0 | 0.00 | 0.00 | 0.00 | 80 | 927.7 | |
| 20260502102516 | 48 | 0.0 | 0.0 | 0.00 | 0.00 | 0.00 | 79 | 928.1 | |
| 20260502101516 | 48 | 0.0 | 0.0 | 0.00 | 0.00 | 0.00 | 79 | 927.6 | |
| 20260502100517 | 48 | 0.0 | 0.0 | 0.00 | 0.00 | 0.00 | 79 | 927.6 | |
| 20260502090516 | 48 | 0.0 | 0.0 | 0.00 | 0.00 | 0.00 | 78 | 927.8 | |
| 20260502071515 | 49 | 0.0 | 0.0 | 0.00 | 0.00 | 0.00 | 73 | 927.9 | |
| 20260502070556 | 49 | 0.0 | 0.0 | 0.00 | 0.00 | 0.00 | 72 | 927.8 | |
| 20260502065516 | 49 | 0.0 | 0.0 | 0.00 | 0.00 | 0.00 | 72 | 927.5 | |
| 20260502064516 | 50 | 0.0 | 1.0 | 0.00 | 0.00 | 0.00 | 71 | 927.7 | |
| 20260502063516 | 50 | 0.0 | 2.0 | 0.00 | 0.00 | 0.00 | 70 | 927.8 | |
| 20260502062516 | 49 | 0.0 | 0.0 | 0.00 | 0.00 | 0.00 | 71 | 927.9 | |
| 20260502061515 | 49 | 0.0 | 0.0 | 0.00 | 0.00 | 0.00 | 72 | 927.9 | |
| 20260502060516 | 49 | 0.0 | 0.0 | 0.00 | 0.00 | 0.00 | 71 | 927.7 | |
| 20260502055515 | 48 | 0.0 | 0.0 | 0.00 | 0.00 | 0.00 | 71 | 927.8 | |
| 20260502054515 | 49 | 0.0 | 0.0 | 0.00 | 0.00 | 0.00 | 71 | 927.8 | |
| 20260502053516 | 48 | 0.0 | 0.0 | 0.00 | 0.00 | 0.00 | 70 | 927.7 | |
| 20260502052515 | 48 | 0.0 | 0.0 | 0.00 | 0.00 | 0.00 | 71 | 927.9 | |
| 20260502051515 | 48 | 0.0 | 0.0 | 0.00 | 0.00 | 0.00 | 72 | 927.9 | |
| 20260502050535 | 48 | 0.0 | 0.0 | 0.00 | 0.00 | 0.00 | 70 | 927.9 | |
| 20260502045515 | 48 | 0.0 | 0.0 | 0.00 | 0.00 | 0.00 | 69 | 927.8 | |
| 20260502044537 | 49 | 0.0 | 0.0 | 0.00 | 0.00 | 0.00 | 68 | 927.8 | |
| 20260502043516 | 48 | 0.0 | 0.0 | 0.00 | 0.00 | 0.00 | 66 | 927.9 | |
| 20260502042515 | 48 | 0.0 | 0.0 | 0.00 | 0.00 | 0.00 | 66 | 928.1 | |
| 20260502041515 | 49 | 0.0 | 0.0 | 0.00 | 0.00 | 0.00 | 66 | 928.2 | |
| 20260502040517 | 49 | 0.0 | 0.0 | 0.00 | 0.00 | 0.00 | 64 | 928.0 | |
| 20260502035535 | 49 | 0.0 | 0.0 | 0.00 | 0.00 | 0.00 | 63 | 928.0 | |
| 20260502034515 | 50 | 0.0 | 0.0 | 0.00 | 0.00 | 0.00 | 61 | 928.0 | |
| 20260502033515 | 50 | 0.0 | 0.0 | 0.00 | 0.00 | 0.00 | 60 | 928.2 | |
| 20260502032538 | 50 | 0.0 | 0.0 | 0.00 | 0.00 | 0.00 | 60 | 928.0 | |
| 20260502031517 | 50 | 0.0 | 0.0 | 0.00 | 0.00 | 0.00 | 61 | 928.0 | |
| 20260502030517 | 49 | 0.0 | 0.0 | 0.00 | 0.00 | 0.00 | 63 | 928.2 | |
| 20260502025517 | 49 | 0.0 | 0.0 | 0.00 | 0.00 | 0.00 | 61 | 927.9 | |
| 20260502024517 | 49 | 0.0 | 0.0 | 0.00 | 0.00 | 0.00 | 60 | 927.9 | |
| 20260502023517 | 48 | 0.0 | 0.0 | 0.00 | 0.00 | 0.00 | 61 | 928.0 | |
| 20260502022517 | 48 | 0.0 | 2.0 | 0.00 | 0.00 | 0.00 | 66 | 928.2 | |
| 20260502021517 | 47 | 0.0 | 0.0 | 0.00 | 0.00 | 0.00 | 63 | 927.9 | |
| 20260502020517 | 47 | 0.0 | 0.0 | 0.00 | 0.00 | 0.00 | 61 | 927.7 | |
| 20260502015517 | 47 | 0.0 | 0.0 | 0.00 | 0.00 | 0.00 | 59 | 927.6 | |
| 20260502014517 | 47 | 0.0 | 0.0 | 0.00 | 0.00 | 0.00 | 57 | 927.7 | |
| 20260502013537 | 48 | 0.0 | 0.0 | 0.00 | 0.00 | 0.00 | 57 | 927.5 | |
| 20260502012517 | 48 | 0.0 | 0.0 | 0.00 | 0.00 | 0.00 | 56 | 927.8 | |
| 20260502011517 | 49 | 0.0 | 0.0 | 0.00 | 0.00 | 0.00 | 56 | 927.4 | |
| 20260502010517 | 49 | 0.0 | 0.0 | 0.00 | 0.00 | 0.00 | 53 | 927.3 | |
| 20260502005517 | 50 | 0.0 | 0.0 | 0.00 | 0.00 | 0.00 | 53 | 927.2 | |
| 20260502004517 | 51 | 0.0 | 0.0 | 0.00 | 0.00 | 0.00 | 54 | 927.4 | |
| 20260502003517 | 51 | 0.0 | 0.0 | 0.00 | 0.00 | 0.00 | 48 | 927.2 | |
| 20260502002537 | 52 | 0.0 | 0.0 | 0.00 | 0.00 | 0.00 | 48 | 926.9 | |
| 20260502001517 | 53 | 0.0 | 0.0 | 0.00 | 0.00 | 0.00 | 50 | 926.9 | |
| 20260502000517 | 54 | 0.0 | 0.0 | 0.00 | 0.00 | 0.00 | 44 | 926.4 | |
| 20260501235517 | 55 | 0.0 | 0.0 | 0.00 | 0.00 | 0.00 | 43 | 926.4 | |
| 20260501234517 | 56 | 0.0 | 0.0 | 0.00 | 0.00 | 0.00 | 39 | 926.5 | |
| 20260501233538 | 57 | 0.0 | 0.0 | 0.00 | 0.00 | 0.00 | 38 | 926.1 | |
| 20260501232557 | 57 | 0.0 | 0.0 | 0.00 | 0.00 | 0.00 | 36 | 925.9 | |
| 20260501231517 | 58 | 0.0 | 0.0 | 0.00 | 0.00 | 0.00 | 37 | 925.7 | |
| 20260501230517 | 58 | 0.0 | 0.0 | 0.00 | 0.00 | 0.00 | 36 | 925.6 | |
| 20260501225518 | 59 | 0.0 | 0.0 | 0.00 | 0.00 | 0.00 | 34 | 925.7 | |
| 20260501224537 | 60 | 0.0 | 1.0 | 0.00 | 0.00 | 0.00 | 33 | 925.5 | |
| 20260501223517 | 61 | 0.0 | 0.0 | 0.00 | 0.00 | 0.00 | 31 | 925.5 | |
| 20260501222517 | 61 | 248 | 1.0 | 5.0 | 0.00 | 0.00 | 0.00 | 30 | 925.5 |
| 20260501221517 | 62 | 0.0 | 1.0 | 0.00 | 0.00 | 0.00 | 32 | 925.4 | |
| 20260501220518 | 63 | 248 | 1.0 | 5.0 | 0.00 | 0.00 | 0.00 | 30 | 925.4 |
| 20260501215538 | 63 | 225 | 1.0 | 3.0 | 0.00 | 0.00 | 0.00 | 30 | 925.3 |
| 20260501214517 | 64 | 270 | 1.0 | 5.0 | 0.00 | 0.00 | 0.00 | 28 | 925.3 |
| 20260501213517 | 65 | 248 | 1.0 | 3.0 | 0.00 | 0.00 | 0.00 | 29 | 925.2 |
| 20260501212517 | 65 | 225 | 2.0 | 6.0 | 0.00 | 0.00 | 0.00 | 28 | 925.1 |
| 20260501211517 | 65 | 248 | 1.0 | 5.0 | 0.00 | 0.00 | 0.00 | 28 | 925.1 |
| 20260501210517 | 65 | 45 | 1.0 | 6.0 | 0.00 | 0.00 | 0.00 | 29 | 925.2 |
| 20260501205517 | 66 | 225 | 2.0 | 6.0 | 0.00 | 0.00 | 0.00 | 27 | 925.0 |
| 20260501204517 | 66 | 248 | 2.0 | 8.0 | 0.00 | 0.00 | 0.00 | 28 | 925.2 |
| 20260501203516 | 66 | 225 | 1.0 | 5.0 | 0.00 | 0.00 | 0.00 | 29 | 924.9 |